EW8281 Weather Reports


time (UTC)temp
F
wind
direction
speed
knots
gust
knots
rain 1hr
in
rain 24hr
in
rain mn
in
humidity
%
barometer
mb
20260504150109 68 272 0.9 7.8 0.00 0.00 0.00 45 1016.1
20260504081502 46 194 0.0 0.0 0.00 0.00 0.00 81 1015.8
20260504044534 52 238 0.0 0.9 0.00 0.00 0.00 62 1016.1
20260504043035 52 221 0.0 3.5 0.00 0.00 0.00 56 1016.0
20260504041529 52 153 0.0 3.5 0.00 0.00 0.00 56 1015.6
20260504040039 53 147 0.9 1.7 0.00 0.00 0.00 55 1015.8
20260504034525 53 159 0.9 3.5 0.00 0.00 0.00 55 1015.9
20260504033024 53 151 0.9 1.7 0.00 0.00 0.00 54 1015.9
20260504031524 53 163 0.0 1.7 0.00 0.00 0.00 52 1015.8
20260504030023 53 174 0.9 1.7 0.00 0.00 0.00 52 1015.9
20260504024523 53 190 0.0 1.7 0.00 0.00 0.00 53 1016.0
20260504023022 53 194 0.0 1.7 0.00 0.00 0.00 53 1015.8
20260504021521 52 208 0.0 0.0 0.00 0.00 0.00 55 1015.6
20260504020021 52 208 0.0 0.9 0.00 0.00 0.00 58 1015.5
20260504014525 52 209 0.0 0.9 0.00 0.00 0.00 59 1015.3
20260504013019 52 211 0.0 0.0 0.00 0.00 0.00 61 1015.1
20260504011518 53 211 0.0 0.0 0.00 0.00 0.00 59 1015.1
20260504010018 54 211 0.0 0.0 0.00 0.00 0.00 57 1015.1
20260504004521 55 211 0.0 0.0 0.00 0.00 0.00 53 1015.0
20260504003017 57 211 0.0 0.9 0.00 0.00 0.00 49 1014.9
20260504001517 59 211 0.0 0.0 0.00 0.00 0.00 43 1014.7
20260504000016 60 211 0.0 0.9 0.00 0.00 0.00 39 1014.7
20260503234516 61 170 0.0 1.7 0.00 0.00 0.00 38 1014.7
20260503233019 62 209 0.0 3.5 0.00 0.00 0.00 36 1014.8
20260503231515 62 213 0.0 4.3 0.00 0.00 0.00 35 1014.8
20260503230015 62 176 0.0 3.5 0.00 0.00 0.00 35 1014.7
20260503224514 63 244 0.0 1.7 0.00 0.00 0.00 34 1014.8
20260503223013 63 256 0.0 3.5 0.00 0.00 0.00 32 1014.9
20260503221512 63 286 0.0 5.2 0.00 0.00 0.00 33 1015.0
20260503220012 63 63 0.0 3.5 0.00 0.00 0.00 30 1015.1
20260503214511 63 234 0.0 6.1 0.00 0.00 0.00 30 1015.3
20260503213017 64 305 0.0 4.3 0.00 0.00 0.00 32 1015.4
20260503211510 65 321 0.9 4.3 0.00 0.00 0.00 28 1015.5
20260503210009 65 5 0.0 4.3 0.00 0.00 0.00 31 1015.5
20260503204508 65 215 1.7 6.1 0.00 0.00 0.00 32 1015.7
20260503203013 65 240 0.9 5.2 0.00 0.00 0.00 32 1015.9
20260503201506 65 351 0.9 6.1 0.00 0.00 0.00 33 1016.2
20260503200008 64 302 0.9 4.3 0.00 0.00 0.00 32 1016.4
20260503194504 64 263 0.9 4.3 0.00 0.00 0.00 31 1016.6
20260503193001 64 263 0.9 5.2 0.00 0.00 0.00 33 1016.7
20260503191607 64 347 0.0 4.3 0.00 0.00 0.00 33 1016.9
20260503190058 63 218 0.9 6.1 0.00 0.00 0.00 33 1017.1
20260503184554 63 285 1.7 7.0 0.00 0.00 0.00 33 1017.3
20260503183109 62 351 1.7 8.7 0.00 0.00 0.00 32 1017.5
20260503181618 62 291 0.9 6.1 0.00 0.00 0.00 36 1017.8
20260503180048 61 308 0.0 6.1 0.00 0.00 0.00 37 1017.9
20260503174548 60 305 2.6 10.4 0.00 0.00 0.00 39 1018.2
20260503173054 60 166 0.9 4.3 0.00 0.00 0.00 41 1018.2
20260503171544 60 331 2.6 7.8 0.00 0.00 0.00 36 1018.4